GW3385 Weather Reports


Display with metric or nautical units.
time (UTC)temp
F
wind
direction
speed
MPH
gust
MPH
rain 1hr
in
rain 24hr
in
rain mn
in
humidity
%
barometer
mb
20260905172555 78 179 0.0 6.0 0.00 0.00 0.00 61 1013.6
20260905172055 77 0 1.0 6.0 0.00 0.00 0.00 61 1013.7
20260905171603 77 0 2.0 6.0 0.00 0.00 0.00 61 1013.7
20260905171056 76 119 2.0 6.0 0.00 0.00 0.00 61 1013.7
20260905170556 76 0 1.0 7.0 0.00 0.00 0.00 64 1013.6
20260905170105 76 200 2.0 7.0 0.00 0.00 0.00 63 1013.7
20260905165555 76 0 1.0 5.0 0.00 0.00 0.00 64 1013.6
20260905165059 76 0 2.0 6.0 0.00 0.00 0.00 63 1013.5
20260905164615 76 71 2.0 6.0 0.00 0.00 0.00 61 1013.5
20260905164057 76 71 0.0 4.0 0.00 0.00 0.00 65 1013.4
20260905163556 76 120 1.0 4.0 0.00 0.00 0.00 65 1013.4
20260905163101 76 0 1.0 4.0 0.00 0.00 0.00 65 1013.3
20260905162556 76 0 0.0 3.0 0.00 0.00 0.00 68 1013.3
20260905162056 75 0 0.0 3.0 0.00 0.00 0.00 68 1013.2
20260905161603 75 0 0.0 3.0 0.00 0.00 0.00 70 1013.2
20260905161055 74 71 0.0 3.0 0.00 0.00 0.00 71 1013.1
20260905160555 74 0 0.0 3.0 0.00 0.00 0.00 71 1013.1
20260905160101 74 99 0.0 3.0 0.00 0.00 0.00 72 1013.1
20260905155555 74 85 0.0 2.0 0.00 0.00 0.00 74 1013.1
20260905155057 73 0 0.0 2.0 0.00 0.00 0.00 74 1013.1
20260905154603 73 0 0.0 2.0 0.00 0.00 0.00 75 1013.2
20260905154056 72 0 0.0 1.0 0.00 0.00 0.00 76 1013.1
20260905153559 72 49 0.0 2.0 0.00 0.00 0.00 76 1013.0
20260905153102 71 0 0.0 2.0 0.00 0.00 0.00 80 1013.0
20260905152555 70 0 0.0 1.0 0.00 0.00 0.00 82 1012.9
20260905152055 69 0 0.0 1.0 0.00 0.00 0.00 84 1012.9
20260905151601 69 0 0.0 2.0 0.00 0.00 0.00 85 1013.0
20260905151055 68 0 0.0 2.0 0.00 0.00 0.00 86 1012.9
20260905150559 68 49 0.0 2.0 0.00 0.00 0.00 87 1013.0
20260905150109 67 0 0.0 2.0 0.00 0.00 0.00 89 1012.9
20260905145555 66 0 0.0 2.0 0.00 0.00 0.00 90 1012.9
20260905145055 66 29 0.0 0.0 0.00 0.00 0.00 90 1012.9
20260905144602 65 0 0.0 0.0 0.00 0.00 0.00 91 1012.9
20260905144055 65 0 0.0 3.0 0.00 0.00 0.00 92 1012.9
20260905143555 64 0 1.0 3.0 0.00 0.00 0.00 92 1012.8
20260905143105 64 350 0.0 0.0 0.00 0.00 0.00 92 1012.7
20260905142555 64 0 0.0 0.0 0.00 0.00 0.00 92 1012.6
20260905142056 64 0 0.0 0.0 0.00 0.00 0.00 93 1012.7
20260905141600 64 0 0.0 0.0 0.00 0.00 0.00 93 1012.8
20260905141055 63 0 0.0 1.0 0.00 0.00 0.00 93 1012.7
20260905140556 63 0 0.0 3.0 0.00 0.00 0.00 93 1012.6
20260905140108 63 341 1.0 3.0 0.00 0.00 0.00 92 1012.6
20260905135556 63 0 0.0 3.0 0.00 0.00 0.00 92 1012.5
20260905135056 63 0 0.0 1.0 0.00 0.00 0.00 92 1012.6
20260905134606 63 352 0.0 1.0 0.00 0.00 0.00 92 1012.4
20260905134055 63 0 0.0 2.0 0.00 0.00 0.00 92 1012.4
20260905133556 63 0 0.0 2.0 0.00 0.00 0.00 92 1012.3
20260905133102 63 0 0.0 0.0 0.00 0.00 0.00 92 1012.2
20260905132555 63 0 0.0 1.0 0.00 0.00 0.00 92 1012.2
20260905132058 63 0 0.0 2.0 0.00 0.00 0.00 92 1012.1
20260905131600 63 0 1.0 2.0 0.00 0.00 0.00 92 1012.1
20260905131056 63 28 0.0 2.0 0.00 0.00 0.00 92 1012.1
20260905130556 63 0 0.0 0.0 0.00 0.00 0.00 92 1012.0
20260905130059 63 0 0.0 3.0 0.00 0.00 0.00 92 1012.1
20260905125555 63 0 0.0 4.0 0.00 0.00 0.00 92 1012.0
20260905125056 63 0 1.0 4.0 0.00 0.00 0.00 92 1012.1
20260905124608 63 351 0.0 3.0 0.00 0.00 0.00 92 1012.1
20260905124055 63 0 0.0 3.0 0.00 0.00 0.00 92 1012.1
20260905123555 63 0 0.0 3.0 0.00 0.00 0.00 92 1012.1
20260905123106 63 352 1.0 3.0 0.00 0.00 0.00 92 1011.9
20260905122556 63 352 0.0 3.0 0.00 0.00 0.00 92 1012.0
20260905122100 63 0 0.0 0.0 0.00 0.00 0.00 92 1012.1
20260905121601 63 0 0.0 1.0 0.00 0.00 0.00 92 1012.1
20260905121100 63 0 0.0 1.0 0.00 0.00 0.00 92 1012.1
20260905120555 63 0 0.0 1.0 0.00 0.00 0.00 92 1012.1
20260905120107 63 0 0.0 2.0 0.00 0.00 0.00 92 1012.1
20260905115556 63 0 0.0 2.0 0.00 0.00 0.00 92 1012.1
20260905115055 63 19 0.0 3.0 0.00 0.00 0.00 92 1012.0
20260905114611 63 0 1.0 3.0 0.00 0.00 0.00 92 1012.1
20260905114056 63 352 1.0 3.0 0.00 0.00 0.00 92 1012.1
20260905113555 63 342 1.0 3.0 0.00 0.00 0.00 92 1012.0
20260905113100 63 0 0.0 0.0 0.00 0.00 0.00 91 1012.0
20260905112556 63 0 0.0 0.0 0.00 0.00 0.00 92 1012.1
20260905112055 63 0 0.0 0.0 0.00 0.00 0.00 92 1012.1
20260905111652 63 0 0.0 3.0 0.00 0.00 0.00 92 1012.1
20260905111057 63 0 0.0 3.0 0.00 0.00 0.00 91 1012.1
20260905110556 63 0 0.0 0.0 0.00 0.00 0.00 91 1012.1
20260905110104 63 0 0.0 0.0 0.00 0.00 0.00 91 1012.0
20260905105555 63 0 0.0 0.0 0.00 0.00 0.00 91 1012.1
20260905105054 63 0 0.0 0.0 0.00 0.00 0.00 91 1012.2
20260905104600 64 0 0.0 0.0 0.00 0.00 0.00 91 1012.2
20260905104054 64 0 0.0 0.0 0.00 0.00 0.00 91 1012.2
20260905103553 64 0 0.0 2.0 0.00 0.00 0.00 91 1012.3
20260905103104 64 0 0.0 2.0 0.00 0.00 0.00 91 1012.2
20260905102556 64 0 0.0 2.0 0.00 0.00 0.00 91 1012.2
20260905102053 64 0 0.0 0.0 0.00 0.00 0.00 91 1012.3
20260905101559 64 0 0.0 2.0 0.00 0.00 0.00 91 1012.3
20260905101054 64 0 0.0 2.0 0.00 0.00 0.00 91 1012.3
20260905100553 64 23 0.0 1.0 0.00 0.00 0.00 91 1012.3
20260905095554 64 0 0.0 1.0 0.00 0.00 0.00 90 1012.2
20260905095053 64 0 0.0 2.0 0.00 0.00 0.00 90 1012.2
20260905094557 64 0 0.0 2.0 0.00 0.00 0.00 91 1012.3
20260905094054 64 0 0.0 2.0 0.00 0.00 0.00 91 1012.3
20260905093554 64 0 0.0 2.0 0.00 0.00 0.00 90 1012.4
20260905093122 64 23 0.0 2.0 0.00 0.00 0.00 90 1012.3
20260905092552 64 24 0.0 2.0 0.00 0.00 0.00 90 1012.4
20260905092052 64 0 0.0 0.0 0.00 0.00 0.00 90 1012.4
20260905091600 64 0 0.0 0.0 0.00 0.00 0.00 90 1012.4
20260905091056 64 0 0.0 0.0 0.00 0.00 0.00 89 1012.5
20260905090552 64 0 0.0 0.0 0.00 0.00 0.00 89 1012.4
20260905085554 64 0 0.0 0.0 0.00 0.00 0.00 89 1012.5
20260905085053 64 0 0.0 0.0 0.00 0.00 0.00 89 1012.5
20260905084605 64 0 0.0 0.0 0.00 0.00 0.00 89 1012.5
20260905084054 64 0 0.0 0.0 0.00 0.00 0.00 89 1012.6
20260905083553 64 0 0.0 1.0 0.00 0.00 0.00 89 1012.7
20260905083101 64 0 0.0 1.0 0.00 0.00 0.00 89 1012.7
20260905082553 64 0 0.0 1.0 0.00 0.00 0.00 89 1012.6
20260905082053 64 0 0.0 1.0 0.00 0.00 0.00 88 1012.7
20260905081556 65 0 0.0 0.0 0.00 0.00 0.00 88 1012.7
20260905081053 65 0 0.0 0.0 0.00 0.00 0.00 88 1012.7
20260905080555 65 0 0.0 0.0 0.00 0.00 0.00 88 1012.7
20260905080054 65 0 0.0 0.0 0.00 0.00 0.00 88 1012.7
20260905075554 65 0 0.0 0.0 0.00 0.00 0.00 88 1012.7
20260905075053 65 0 0.0 0.0 0.00 0.00 0.00 89 1012.6
20260905074609 65 0 0.0 2.0 0.00 0.00 0.00 89 1012.6
20260905074052 65 0 0.0 2.0 0.00 0.00 0.00 89 1012.7
20260905073556 65 0 0.0 2.0 0.00 0.00 0.00 89 1012.5
20260905073103 65 0 1.0 2.0 0.00 0.00 0.00 89 1012.7
20260905072555 65 30 0.0 2.0 0.00 0.00 0.00 89 1012.7
20260905072055 65 0 0.0 0.0 0.00 0.00 0.00 88 1012.5
20260905071558 65 0 0.0 0.0 0.00 0.00 0.00 88 1012.5
20260905071056 65 0 0.0 0.0 0.00 0.00 0.00 88 1012.5
20260905070558 65 0 0.0 2.0 0.00 0.00 0.00 87 1012.5
20260905065555 65 0 0.0 2.0 0.00 0.00 0.00 88 1012.4
20260905065055 65 44 0.0 2.0 0.00 0.00 0.00 88 1012.4
20260905064626 65 0 0.0 2.0 0.00 0.00 0.00 88 1012.3
20260905064054 65 57 0.0 2.0 0.00 0.00 0.00 88 1012.3
20260905063556 65 0 0.0 0.0 0.00 0.00 0.00 88 1012.3
20260905063101 65 0 0.0 0.0 0.00 0.00 0.00 88 1012.3
20260905062556 66 0 0.0 0.0 0.00 0.00 0.00 88 1012.2
20260905062056 66 0 0.0 2.0 0.00 0.00 0.00 88 1012.2
20260905061601 66 0 0.0 2.0 0.00 0.00 0.00 88 1012.3
20260905061056 65 0 0.0 2.0 0.00 0.00 0.00 88 1012.3
20260905060556 65 0 0.0 2.0 0.00 0.00 0.00 87 1012.3
20260905060055 65 0 0.0 3.0 0.00 0.00 0.00 87 1012.3
20260905055558 66 0 0.0 3.0 0.00 0.00 0.00 87 1012.2
20260905055056 66 0 0.0 0.0 0.00 0.00 0.00 87 1012.3
20260905054604 66 0 0.0 0.0 0.00 0.00 0.00 87 1012.3
20260905054056 66 0 0.0 1.0 0.00 0.00 0.00 87 1012.4
20260905053556 66 0 0.0 1.0 0.00 0.00 0.00 87 1012.3
20260905053100 66 0 0.0 0.0 0.00 0.00 0.00 86 1012.2
20260905052555 66 0 0.0 0.0 0.00 0.00 0.00 87 1012.3
20260905052056 66 0 0.0 0.0 0.00 0.00 0.00 87 1012.4
20260905051558 66 0 0.0 0.0 0.00 0.00 0.00 87 1012.3
20260905051055 66 0 0.0 0.0 0.00 0.00 0.00 87 1012.3
20260905050556 66 0 0.0 2.0 0.00 0.00 0.00 87 1012.3
20260905050100 66 0 0.0 2.0 0.00 0.00 0.00 87 1012.3
20260905045555 66 0 0.0 2.0 0.00 0.00 0.00 86 1012.2
20260905045055 66 0 0.0 1.0 0.00 0.00 0.00 87 1012.3
20260905044604 66 0 0.0 3.0 0.00 0.00 0.00 87 1012.2
20260905044057 66 0 0.0 3.0 0.00 0.00 0.00 86 1012.0
20260905043555 67 0 0.0 0.0 0.00 0.00 0.00 86 1011.8
20260905043106 67 0 0.0 0.0 0.00 0.00 0.00 86 1011.7
20260905042555 67 0 0.0 0.0 0.00 0.00 0.00 86 1011.7
20260905042056 67 0 0.0 0.0 0.00 0.00 0.00 86 1011.8
20260905041601 67 0 0.0 3.0 0.00 0.00 0.00 85 1011.7
20260905041055 67 0 0.0 3.0 0.00 0.00 0.00 85 1011.6
20260905040555 67 343 0.0 3.0 0.00 0.00 0.00 85 1011.6
20260905035555 68 0 0.0 1.0 0.00 0.00 0.00 85 1011.9
20260905035056 68 0 0.0 1.0 0.00 0.00 0.00 85 1011.9
20260905034609 68 0 0.0 2.0 0.00 0.00 0.00 85 1011.9
20260905034056 68 346 0.0 2.0 0.00 0.00 0.00 85 1011.7
20260905033555 68 348 0.0 2.0 0.00 0.00 0.00 85 1011.6
20260905033056 68 0 0.0 0.0 0.00 0.00 0.00 84 1011.5
20260905032556 69 0 0.0 1.0 0.00 0.00 0.00 84 1011.5
20260905032055 69 0 0.0 3.0 0.00 0.00 0.00 84 1011.4
20260905031556 69 0 0.0 4.0 0.00 0.00 0.00 85 1011.3
20260905031056 69 236 0.0 4.0 0.00 0.00 0.00 84 1011.3
20260905030555 69 216 1.0 4.0 0.00 0.00 0.00 84 1011.2
20260905030117 69 0 0.0 2.0 0.00 0.00 0.00 84 1011.2
20260905025555 69 0 0.0 4.0 0.00 0.00 0.00 84 1011.1
20260905025056 69 0 1.0 6.0 0.00 0.00 0.00 84 1011.1
20260905024606 69 265 0.0 7.0 0.00 0.00 0.00 84 1011.1
20260905024056 69 276 3.0 10.0 0.00 0.00 0.00 84 1011.1
20260905023600 69 242 3.0 10.0 0.00 0.00 0.00 84 1011.1
20260905023101 69 269 7.0 10.0 0.00 0.00 0.00 83 1011.1
20260905022555 69 262 6.0 9.0 0.00 0.00 0.00 83 1011.2
20260905022055 70 294 2.0 8.0 0.00 0.00 0.00 82 1011.2
20260905021556 70 286 4.0 9.0 0.00 0.00 0.00 82 1011.2
20260905021055 70 158 1.0 10.0 0.00 0.00 0.00 81 1011.1
20260905020555 70 175 4.0 11.0 0.00 0.00 0.00 81 1011.2
20260905020107 70 276 6.0 11.0 0.00 0.00 0.00 80 1011.2
20260905015555 71 262 5.0 11.0 0.00 0.00 0.00 81 1011.2
20260905015056 71 264 4.0 10.0 0.00 0.00 0.00 81 1011.3
20260905014604 71 0 5.0 10.0 0.00 0.00 0.00 81 1011.4
20260905014056 71 325 3.0 10.0 0.00 0.00 0.00 80 1011.3
20260905013555 71 256 7.0 10.0 0.00 0.00 0.00 78 1011.4
20260905013059 71 244 4.0 10.0 0.00 0.00 0.00 78 1011.4
20260905012558 72 267 5.0 10.0 0.00 0.00 0.00 78 1011.3
20260905012058 72 292 6.0 10.0 0.00 0.00 0.00 76 1011.4
20260905011558 72 248 3.0 11.0 0.00 0.00 0.00 78 1011.5
20260905011055 72 275 4.0 11.0 0.00 0.00 0.00 78 1011.5
20260905010559 72 318 5.0 11.0 0.00 0.00 0.00 76 1011.6
20260905005556 73 203 4.0 11.0 0.00 0.00 0.00 75 1011.7
20260905005056 73 269 5.0 11.0 0.00 0.00 0.00 73 1011.7
20260905004609 73 167 5.0 11.0 0.00 0.00 0.00 73 1011.7
20260905004056 73 198 4.0 11.0 0.00 0.00 0.00 74 1011.6
20260905003556 73 175 3.0 9.0 0.00 0.00 0.00 73 1011.6
20260905003102 74 282 5.0 12.0 0.00 0.00 0.00 73 1011.5
20260905002555 74 285 2.0 12.0 0.00 0.00 0.00 74 1011.5
20260905002056 74 271 4.0 10.0 0.00 0.00 0.00 73 1011.4
20260905001608 74 264 5.0 11.0 0.00 0.00 0.00 74 1011.4
20260905001055 74 131 5.0 11.0 0.00 0.00 0.00 72 1011.4
20260905000556 74 214 4.0 11.0 0.00 0.00 0.00 73 1011.5
20260905000108 74 211 3.0 12.0 0.00 0.00 0.00 72 1011.4
20260904235555 74 171 4.0 12.0 0.00 0.00 0.00 72 1011.4
20260904235057 75 275 4.0 12.0 0.00 0.00 0.00 72 1011.4
20260904234608 75 213 4.0 10.0 0.00 0.00 0.00 71 1011.5
20260904234056 75 194 4.0 10.0 0.00 0.00 0.00 72 1011.5
20260904233556 75 245 3.0 12.0 0.00 0.00 0.00 71 1011.5
20260904233059 75 292 5.0 12.0 0.00 0.00 0.00 71 1011.6
20260904232556 75 135 3.0 9.0 0.00 0.00 0.00 71 1011.5
20260904232056 75 202 5.0 12.0 0.00 0.00 0.00 71 1011.4
20260904231602 75 225 4.0 12.0 0.00 0.00 0.00 72 1011.5
20260904231055 75 303 7.0 12.0 0.00 0.00 0.00 71 1011.5
20260904230559 75 267 5.0 11.0 0.00 0.00 0.00 70 1011.5
20260904230057 75 202 5.0 13.0 0.00 0.00 0.00 71 1011.6
20260904225555 75 166 4.0 13.0 0.00 0.00 0.00 69 1011.6
20260904225055 75 204 5.0 12.0 0.00 0.00 0.00 70 1011.7
20260904224603 75 217 5.0 12.0 0.00 0.00 0.00 70 1011.8
20260904224055 75 289 4.0 13.0 0.00 0.00 0.00 70 1011.7
20260904223556 75 212 4.0 13.0 0.00 0.00 0.00 70 1011.7
20260904223103 75 264 7.0 13.0 0.00 0.00 0.00 71 1011.9
20260904222555 75 273 6.0 12.0 0.00 0.00 0.00 71 1011.8
20260904222055 75 188 4.0 12.0 0.00 0.00 0.00 72 1011.8
20260904221603 75 276 4.0 13.0 0.00 0.00 0.00 71 1011.8
20260904221057 75 255 5.0 13.0 0.00 0.00 0.00 71 1011.8
20260904220556 75 180 5.0 13.0 0.00 0.00 0.00 69 1011.9
20260904220112 75 197 6.0 13.0 0.00 0.00 0.00 70 1011.9
20260904215556 75 223 7.0 14.0 0.00 0.00 0.00 70 1011.9
20260904215059 75 202 4.0 14.0 0.00 0.00 0.00 72 1011.9
20260904214602 75 260 6.0 14.0 0.00 0.00 0.00 70 1011.9
20260904214056 75 284 4.0 12.0 0.00 0.00 0.00 72 1012.0
20260904213557 75 229 7.0 14.0 0.00 0.00 0.00 70 1012.0
20260904213105 75 252 4.0 14.0 0.00 0.00 0.00 70 1012.1
20260904212556 75 195 4.0 14.0 0.00 0.00 0.00 70 1012.0
20260904212055 76 200 6.0 12.0 0.00 0.00 0.00 69 1012.1
20260904211609 76 142 4.0 11.0 0.00 0.00 0.00 69 1012.1
20260904211055 76 198 4.0 11.0 0.00 0.00 0.00 69 1012.2
20260904210555 75 257 5.0 11.0 0.00 0.00 0.00 68 1012.0
20260904210114 75 192 4.0 10.0 0.00 0.00 0.00 70 1012.1
20260904205556 75 186 4.0 13.0 0.00 0.00 0.00 69 1012.1
20260904205056 75 188 4.0 13.0 0.00 0.00 0.00 68 1012.2
20260904204608 75 292 4.0 10.0 0.00 0.00 0.00 69 1012.1
20260904204056 75 205 4.0 12.0 0.00 0.00 0.00 68 1012.0
20260904203557 75 153 6.0 12.0 0.00 0.00 0.00 68 1012.1
20260904203102 75 202 4.0 12.0 0.00 0.00 0.00 68 1011.9
20260904202556 75 205 6.0 11.0 0.00 0.00 0.00 67 1012.1
20260904202055 75 208 5.0 11.0 0.00 0.00 0.00 67 1012.3
20260904201622 76 175 2.0 14.0 0.00 0.00 0.00 67 1012.4
20260904201055 75 189 4.0 14.0 0.00 0.00 0.00 67 1012.4
20260904200557 75 181 5.0 9.0 0.00 0.00 0.00 66 1012.3
20260904200129 75 171 3.0 13.0 0.00 0.00 0.00 66 1012.4
20260904195555 75 173 4.0 13.0 0.00 0.00 0.00 66 1012.4
20260904195059 75 153 3.0 9.0 0.00 0.00 0.00 66 1012.4
20260904194636 75 176 4.0 9.0 0.00 0.00 0.00 67 1012.5
20260904194056 75 194 4.0 11.0 0.00 0.00 0.00 66 1012.6
20260904193556 75 298 5.0 11.0 0.00 0.00 0.00 67 1012.6
20260904193119 75 166 4.0 11.0 0.00 0.00 0.00 66 1012.8
20260904192556 76 162 4.0 10.0 0.00 0.00 0.00 66 1012.8
20260904192059 76 218 1.0 8.0 0.00 0.00 0.00 65 1012.7
20260904191624 76 263 2.0 8.0 0.00 0.00 0.00 64 1012.9
20260904191058 76 138 2.0 5.0 0.00 0.00 0.00 65 1012.9
20260904190556 75 144 1.0 8.0 0.00 0.00 0.00 66 1012.9
20260904190108 75 233 2.0 8.0 0.00 0.00 0.00 65 1013.1
20260904185557 76 0 2.0 6.0 0.00 0.00 0.00 65 1013.1
20260904185056 76 125 1.0 6.0 0.00 0.00 0.00 65 1013.0
20260904184614 75 153 2.0 6.0 0.00 0.00 0.00 67 1013.1
20260904184058 75 0 2.0 6.0 0.00 0.00 0.00 68 1013.2
20260904183556 74 189 0.0 9.0 0.00 0.00 0.00 68 1013.2
20260904183101 74 0 3.0 9.0 0.00 0.00 0.00 68 1013.1
20260904182555 74 163 4.0 9.0 0.00 0.00 0.00 68 1013.2
20260904182055 74 188 1.0 9.0 0.00 0.00 0.00 70 1013.2
20260904181607 73 170 3.0 9.0 0.00 0.00 0.00 71 1013.3
20260904181056 73 210 2.0 6.0 0.00 0.00 0.00 72 1013.3
20260904180556 73 273 2.0 8.0 0.00 0.00 0.00 70 1013.4
20260904180059 73 256 3.0 12.0 0.00 0.00 0.00 71 1013.3
20260904175555 73 198 2.0 12.0 0.00 0.00 0.00 71 1013.4
20260904175055 72 186 3.0 6.0 0.00 0.00 0.00 72 1013.4
20260904174608 72 292 1.0 6.0 0.00 0.00 0.00 72 1013.4
20260904174056 72 221 2.0 6.0 0.00 0.00 0.00 73 1013.4
20260904173556 72 0 2.0 6.0 0.00 0.00 0.00 71 1013.3
20260904173112 72 190 1.0 6.0 0.00 0.00 0.00 71 1013.2